Brandy Station, VA

12:03 AM EDT on July 24, 2016 (GMT -0400)
Culpeper Regional

Weather History for KCJR - March, 2013

Change the Weather History Date:

Friday, March 15, 2013

  Actual Average (KOMH) Record (KOMH)
Temperature  
Mean Temperature 45 °F -  
Max Temperature 62 °F 54 °F 86 °F (1990)
Min Temperature 28 °F 33 °F 10 °F (1993)
Degree Days  
Heating Degree Days 20    
Moisture  
Dew Point -1 °F    
Average Humidity 35    
Maximum Humidity 93    
Minimum Humidity 4    
Precipitation  
Precipitation 0.00 in - - ()
Sea Level Pressure  
Sea Level Pressure 29.96 in    
Wind  
Wind Speed 4 mph (SW)    
Max Wind Speed 18 mph    
Max Gust Speed 26 mph    
Visibility 10 miles    
Events      
Averages and records for this station are not official NWS values.
T = Trace of Precipitation, MM = Missing Value Source: NWS Daily Summary

Daily Weather History Graph

Daily Weather History Graph

Search for Another Location

Airport or City:

Trip Planner

Search our weather history database for the weather conditions in past years. The results will help you decide how hot, cold, wet, or windy it might be!

Date:

Astronomy

Mar. 15, 2013 Rise Set
Actual Time 7:22 AM EDT 7:18 PM EDT
Civil Twilight 6:55 AM EDT 7:45 PM EDT
Nautical Twilight 6:25 AM EDT 8:16 PM EDT
Astronomical Twilight 5:54 AM EDT 8:47 PM EDT
Moon 9:14 AM EDT (3/15) 11:27 PM EDT (3/15)
Length of Visible Light 12h 49m
Length of Day
11h 56m
Waxing Crescent, 15% of the Moon is Illuminated
Mar 15
Waxing Crescent
Mar 19
First Quarter
Mar 27
Full
Apr 3
Last Quarter
Apr 10
New

Hourly Weather History & Observations

Time (EDT) Temp. Windchill Dew Point Humidity Pressure Visibility Wind Dir Wind Speed Gust Speed Precip Events Conditions
12:15 AM 42.8 °F 40.1 °F 17.6 °F 36% 30.11 in 10.0 mi WNW 4.6 mph - N/A   Clear
12:35 AM 42.8 °F 41.1 °F 17.6 °F 36% 30.12 in 10.0 mi WNW 3.5 mph - N/A   Clear
12:55 AM 39.2 °F 37.0 °F 21.2 °F 49% 30.12 in 10.0 mi SSW 3.5 mph - N/A   Clear
1:15 AM 35.6 °F - 23.0 °F 60% 30.11 in 10.0 mi Calm Calm - N/A   Clear
1:35 AM 33.8 °F - 23.0 °F 65% 30.12 in 10.0 mi Calm Calm - N/A   Clear
1:55 AM 33.8 °F - 24.8 °F 70% 30.11 in 10.0 mi Calm Calm - N/A   Clear
2:15 AM 33.8 °F 30.8 °F 24.8 °F 70% 30.11 in 10.0 mi WSW 3.5 mph - N/A   Clear
2:35 AM 37.4 °F 33.8 °F 19.4 °F 48% 30.11 in 10.0 mi West 4.6 mph - N/A   Clear
2:55 AM 42.8 °F 40.1 °F 17.6 °F 36% 30.10 in 10.0 mi WNW 4.6 mph - N/A   Clear
3:15 AM 42.8 °F 38.0 °F 17.6 °F 36% 30.10 in 10.0 mi WNW 8.1 mph - N/A   Clear
3:35 AM 37.4 °F 34.9 °F 19.4 °F 48% 30.10 in 10.0 mi South 3.5 mph - N/A   Clear
3:55 AM 35.6 °F - 23.0 °F 60% 30.10 in 10.0 mi Calm Calm - N/A   Clear
4:15 AM 32.0 °F - 23.0 °F 69% 30.10 in 10.0 mi Calm Calm - N/A   Clear
4:35 AM 30.2 °F - 23.0 °F 75% 30.10 in 10.0 mi Calm Calm - N/A   Clear
4:55 AM 30.2 °F - 23.0 °F 75% 30.09 in 10.0 mi Calm Calm - N/A   Clear
5:15 AM 30.2 °F - 26.6 °F 86% 30.10 in 10.0 mi Calm Calm - N/A   Clear
5:35 AM 30.2 °F 26.7 °F 24.8 °F 80% 30.09 in 10.0 mi SSW 3.5 mph - N/A   Clear
5:55 AM 30.2 °F - 24.8 °F 80% 30.09 in 10.0 mi Calm Calm - N/A   Clear
6:15 AM 28.4 °F - 24.8 °F 86% 30.09 in 10.0 mi Calm Calm - N/A   Clear
6:35 AM 28.4 °F - 26.6 °F 93% 30.09 in 10.0 mi Calm Calm - N/A   Clear
6:55 AM 30.2 °F - 26.6 °F 86% 30.10 in 10.0 mi Calm Calm - N/A   Clear
7:15 AM 28.4 °F - 26.6 °F 93% 30.09 in 10.0 mi Calm Calm - N/A   Clear
7:35 AM 28.4 °F - 24.8 °F 86% 30.09 in 10.0 mi Calm Calm - N/A   Clear
7:55 AM 28.4 °F - 24.8 °F 86% 30.09 in 10.0 mi Calm Calm - N/A   Clear
8:15 AM 30.2 °F - 26.6 °F 86% 30.08 in 10.0 mi Calm Calm - N/A   Clear
8:35 AM 30.2 °F - 26.6 °F 86% 30.08 in 10.0 mi Calm Calm - N/A   Clear
8:55 AM 33.8 °F - 28.4 °F 81% 30.08 in 10.0 mi Calm Calm - N/A   Clear
9:15 AM 39.2 °F 37.0 °F 26.6 °F 61% 30.08 in 10.0 mi SSW 3.5 mph - N/A   Clear
9:35 AM 41.0 °F 36.4 °F 24.8 °F 53% 30.08 in 5.0 mi SSW 6.9 mph - N/A   Haze
9:55 AM 44.6 °F 40.2 °F 24.8 °F 46% 30.06 in 10.0 mi SSW 8.1 mph - N/A   Clear
10:15 AM 44.6 °F 40.2 °F 24.8 °F 46% 30.05 in 10.0 mi SW 8.1 mph - N/A   Clear
10:35 AM 46.4 °F 41.1 °F 23.0 °F 40% 30.03 in 4.0 mi SSW 11.5 mph 16.1 mph N/A   Haze
10:55 AM 48.2 °F - 21.2 °F 34% 30.03 in 10.0 mi SW 15.0 mph 19.6 mph N/A   Clear
11:55 AM 51.8 °F - 23.0 °F 33% 30.00 in 10.0 mi WSW 16.1 mph 19.6 mph N/A   Clear
12:15 PM 51.8 °F - 24.8 °F 35% 29.99 in 10.0 mi SSW 16.1 mph 20.7 mph N/A   Clear
12:35 PM 53.6 °F - 24.8 °F 33% 29.98 in 10.0 mi SSW 10.4 mph 20.7 mph N/A   Clear
12:55 PM 53.6 °F - 24.8 °F 33% 29.97 in 10.0 mi SW 18.4 mph 23.0 mph N/A   Clear
1:15 PM 53.6 °F - 26.6 °F 35% 29.96 in 10.0 mi SW 13.8 mph 20.7 mph N/A   Clear
1:35 PM 55.4 °F - 5.0 °F 13% 29.95 in 10.0 mi SSW 8.1 mph 20.7 mph N/A   Clear
1:55 PM 57.2 °F - -29.2 °F 4% 29.93 in 10.0 mi SW 16.1 mph 20.7 mph N/A   Clear
2:15 PM 57.2 °F - -27.4 °F 4% 29.92 in 10.0 mi SSW 17.3 mph 26.5 mph N/A   Clear
2:35 PM 59.0 °F - -27.4 °F 4% 29.90 in 10.0 mi SW 11.5 mph 18.4 mph N/A   Clear
2:55 PM 60.8 °F - -27.4 °F 4% 29.88 in 10.0 mi SSW 12.7 mph 18.4 mph N/A   Clear
3:15 PM 60.8 °F - -25.6 °F 4% 29.86 in 10.0 mi SSW 9.2 mph 19.6 mph N/A   Clear
3:35 PM 62.6 °F - -25.6 °F 4% 29.85 in 10.0 mi SSW 10.4 mph 18.4 mph N/A   Clear
3:55 PM 62.6 °F - -25.6 °F 4% 29.83 in 10.0 mi SSW 10.4 mph 16.1 mph N/A   Clear
4:15 PM 62.6 °F - -25.6 °F 4% 29.83 in 10.0 mi WSW 11.5 mph 18.4 mph N/A   Clear
4:35 PM 62.6 °F - -25.6 °F 4% 29.82 in 10.0 mi SSW 11.5 mph - N/A   Clear
4:55 PM 62.6 °F - -25.6 °F 4% 29.82 in 10.0 mi SW 11.5 mph - N/A   Scattered Clouds
5:15 PM 62.6 °F - -25.6 °F 4% 29.81 in 10.0 mi SSW 11.5 mph 16.1 mph N/A   Clear
5:35 PM 62.6 °F - -25.6 °F 4% 29.81 in 10.0 mi South 10.4 mph - N/A   Clear
5:55 PM 62.6 °F - -25.6 °F 4% 29.80 in 10.0 mi SSW 9.2 mph - N/A   Clear
6:15 PM 60.8 °F - -25.6 °F 4% 29.80 in 10.0 mi South 8.1 mph - N/A   Clear
6:35 PM 60.8 °F - -27.4 °F 4% 29.80 in 10.0 mi South 8.1 mph - N/A   Clear
6:55 PM 59.0 °F - -27.4 °F 4% 29.80 in 10.0 mi South 4.6 mph - N/A   Clear
7:15 PM 59.0 °F - -27.4 °F 4% 29.80 in 10.0 mi South 3.5 mph - N/A   Clear
7:35 PM 55.4 °F - -29.2 °F 4% 29.81 in 10.0 mi SSW 3.5 mph - N/A   Clear
7:55 PM 53.6 °F - -31.0 °F 4% 29.81 in 10.0 mi Calm Calm - N/A   Clear
8:15 PM 51.8 °F - -32.8 °F 4% 29.81 in 10.0 mi SSW 3.5 mph - N/A   Clear
8:35 PM 50.0 °F - -34.6 °F 4% 29.81 in 10.0 mi Calm Calm - N/A   Clear
8:55 PM 48.2 °F - -34.6 °F 4% 29.81 in 10.0 mi Calm Calm - N/A   Clear
9:15 PM 46.4 °F - -36.4 °F 4% 29.82 in 10.0 mi Calm Calm - N/A   Clear
9:35 PM 46.4 °F - -36.4 °F 4% 29.82 in 10.0 mi Calm Calm - N/A   Clear
9:55 PM 44.6 °F - -36.4 °F 4% 29.82 in 10.0 mi Calm Calm - N/A   Clear
10:15 PM 46.4 °F - -36.4 °F 4% 29.82 in 10.0 mi Calm Calm - N/A   Clear
10:35 PM 44.6 °F - -36.4 °F 4% 29.82 in 10.0 mi Calm Calm - N/A   Clear
10:55 PM 42.8 °F - -38.2 °F 4% 29.82 in 10.0 mi Calm Calm - N/A   Clear
11:15 PM 42.8 °F - -38.2 °F 4% 29.82 in 10.0 mi Calm Calm - N/A   Clear
11:35 PM 41.0 °F - -38.2 °F 4% 29.81 in 10.0 mi Calm Calm - N/A   Clear
11:55 PM 39.2 °F - -40.0 °F 4% 29.82 in 10.0 mi Calm Calm - N/A   Clear